44P/Reinmuth 2 (2022)

Japanese version
Home page
Updated on December 30, 2022

---------------------------------------------------------------------

* Profile

* Pictures

* Orbital Elements

Epoch 2022 Aug. 9.0 TT = JDT 2459800.5
T 2022 Apr. 23.18814 TT                                 Rudenko
q   2.1125697            (2000.0)            P               Q
n   0.13895027     Peri.   58.07470     +0.95942645     +0.26418889
a   3.6917288      Node   286.44711     -0.28069440     +0.86187369
e   0.4277560      Incl.    5.89568     -0.02667461     +0.43287177
P   7.09
>From 1416 observations 2008 July 2-2022 Nov. 4, mean residual 0".7.
     Nongravitational parameters A1 = +0.02, A2 = -0.0627.

* Finding Charts

* Magnitudes Graph

        m1 = 10.6 + 5 log d + 13.0 log r  [ ,0]  (             - 2022 Apr. 23)
        m1 = 11.6 + 5 log d + 10.0 log r  [0, ]  (2022 Apr. 23 -             )

---------------------------------------------------------------------

The orbital elements are published on M.P.E.C. 2022-V95.
The charts are made with StellaNavigator Ver.10 (AstroArts).
The magnitudes graphs are made with Comet for Windows.

---------------------------------------------------------------------

Copyright(C) Seiichi Yoshida (comet@aerith.net). All rights reserved.